GIA404 WIII-WADD

Flight info

Callsign GIA404
Flight time 1h 26m
Altitude 41000
Route CA T3 MOVMO
Aircraft A333/H-SDE3GHIJ2J3J5M1RVWXY/LB2D1

Departure

Time 2026-05-05 08:21
Airport Soekarno-Hatta International Airport (WIII)

Arrival

Time 2026-05-05 09:47
Airport Denpasar I Gusti Ngurah Rai International Airport (WADD)
Time Latitude Longitude Altitude Speed Heading
2026-05-05 07:37 -6.11837 106.66232 52 ft 0 kts 158°
2026-05-05 07:57 -6.11829 106.66228 51 ft 3 kts 158°
2026-05-05 07:58 -6.11810 106.66221 51 ft 3 kts 158°
2026-05-05 07:58 -6.11791 106.66214 51 ft 3 kts 159°
2026-05-05 07:58 -6.11776 106.66208 51 ft 3 kts 170°
2026-05-05 07:58 -6.11758 106.66209 51 ft 3 kts 211°
2026-05-05 07:59 -6.11743 106.66221 51 ft 3 kts 232°
2026-05-05 07:59 -6.11732 106.66238 51 ft 3 kts 244°
2026-05-05 07:59 -6.11727 106.66249 51 ft 1 kts 248°
2026-05-05 07:59 -6.11726 106.66251 51 ft 2 kts 248°
2026-05-05 08:02 -6.11728 106.66248 51 ft 2 kts 248°
2026-05-05 08:03 -6.11739 106.66220 51 ft 6 kts 248°
2026-05-05 08:03 -6.11758 106.66170 51 ft 9 kts 249°
2026-05-05 08:03 -6.11776 106.66113 51 ft 3 kts 283°
2026-05-05 08:03 -6.11764 106.66076 51 ft 8 kts 284°
2026-05-05 08:04 -6.11736 106.66017 51 ft 11 kts 316°
2026-05-05 08:04 -6.11687 106.65980 51 ft 5 kts 334°
2026-05-05 08:04 -6.11645 106.65960 51 ft 8 kts 334°
2026-05-05 08:04 -6.11597 106.65917 51 ft 10 kts 282°
2026-05-05 08:05 -6.11611 106.65846 51 ft 10 kts 250°
2026-05-05 08:05 -6.11640 106.65773 51 ft 13 kts 248°
2026-05-05 08:05 -6.11674 106.65687 51 ft 14 kts 248°
2026-05-05 08:05 -6.11711 106.65590 51 ft 16 kts 249°
2026-05-05 08:06 -6.11750 106.65492 51 ft 15 kts 248°
2026-05-05 08:06 -6.11792 106.65386 51 ft 17 kts 248°
2026-05-05 08:06 -6.11830 106.65291 51 ft 13 kts 255°
2026-05-05 08:06 -6.11789 106.65214 51 ft 13 kts 302°
2026-05-05 08:07 -6.11803 106.65121 51 ft 15 kts 249°
2026-05-05 08:07 -6.11844 106.65018 51 ft 17 kts 248°
2026-05-05 08:07 -6.11888 106.64907 51 ft 16 kts 248°
2026-05-05 08:07 -6.11927 106.64809 51 ft 15 kts 248°
2026-05-05 08:08 -6.11966 106.64710 51 ft 15 kts 249°
2026-05-05 08:08 -6.12003 106.64617 51 ft 13 kts 248°
2026-05-05 08:08 -6.12038 106.64526 51 ft 14 kts 248°
2026-05-05 08:08 -6.12077 106.64427 51 ft 16 kts 248°
2026-05-05 08:09 -6.12119 106.64320 51 ft 15 kts 248°
2026-05-05 08:09 -6.12123 106.64310 51 ft 0 kts 248°
2026-05-05 08:18 -6.12129 106.64295 51 ft 5 kts 248°
2026-05-05 08:18 -6.12147 106.64251 51 ft 9 kts 248°
2026-05-05 08:18 -6.12175 106.64184 51 ft 11 kts 247°
2026-05-05 08:18 -6.12207 106.64106 51 ft 13 kts 248°
2026-05-05 08:19 -6.12239 106.64027 51 ft 11 kts 248°
2026-05-05 08:19 -6.12246 106.63946 51 ft 13 kts 289°
2026-05-05 08:19 -6.12171 106.63897 51 ft 15 kts 15°
2026-05-05 08:19 -6.12079 106.63955 51 ft 16 kts 54°
2026-05-05 08:20 -6.12006 106.64118 51 ft 48 kts 69°
2026-05-05 08:20 -6.11811 106.64608 51 ft 103 kts 69°
2026-05-05 08:20 -6.11482 106.65427 62 ft 151 kts 67°
2026-05-05 08:20 -6.11070 106.66438 502 ft 161 kts 67°
2026-05-05 08:21 -6.10616 106.67510 1045 ft 172 kts 64°
2026-05-05 08:21 -6.09953 106.68476 1788 ft 167 kts 46°
2026-05-05 08:21 -6.09110 106.69372 2078 ft 191 kts 47°
2026-05-05 08:21 -6.08105 106.70433 2167 ft 228 kts 47°
2026-05-05 08:22 -6.06924 106.71676 2407 ft 258 kts 47°
2026-05-05 08:22 -6.05685 106.72975 3357 ft 257 kts 48°
2026-05-05 08:22 -6.04437 106.74284 4200 ft 261 kts 48°
2026-05-05 08:22 -6.03172 106.75611 4862 ft 272 kts 48°
2026-05-05 08:23 -6.01880 106.76962 5941 ft 265 kts 48°
2026-05-05 08:23 -6.00589 106.78314 6748 ft 271 kts 47°
2026-05-05 08:23 -5.99276 106.79689 7528 ft 275 kts 47°
2026-05-05 08:23 -5.97937 106.81090 8321 ft 279 kts 47°
2026-05-05 08:24 -5.96786 106.82663 9039 ft 283 kts 65°
2026-05-05 08:24 -5.96277 106.84556 9847 ft 284 kts 86°
2026-05-05 08:24 -5.96538 106.86551 10294 ft 300 kts 108°
2026-05-05 08:24 -5.97314 106.88605 10391 ft 328 kts 111°
2026-05-05 08:25 -5.98206 106.90798 10766 ft 345 kts 112°
2026-05-05 08:25 -5.99129 106.93016 11693 ft 343 kts 112°
2026-05-05 08:25 -6.00073 106.95253 12374 ft 352 kts 112°
2026-05-05 08:25 -6.01031 106.97503 13169 ft 355 kts 113°
2026-05-05 08:26 -6.02013 106.99796 13944 ft 359 kts 113°
2026-05-05 08:26 -6.03008 107.02116 14652 ft 364 kts 113°
2026-05-05 08:26 -6.04017 107.04461 15374 ft 367 kts 113°
2026-05-05 08:26 -6.05035 107.06825 16083 ft 371 kts 113°
2026-05-05 08:27 -6.06068 107.09223 16746 ft 375 kts 113°
2026-05-05 08:27 -6.07109 107.11638 17434 ft 378 kts 113°
2026-05-05 08:27 -6.08161 107.14076 18088 ft 382 kts 112°
2026-05-05 08:27 -6.09227 107.16549 18722 ft 386 kts 113°
2026-05-05 08:28 -6.10306 107.19028 19377 ft 389 kts 113°
2026-05-05 08:28 -6.11386 107.21506 19950 ft 393 kts 113°
2026-05-05 08:28 -6.12485 107.24029 20581 ft 395 kts 113°
2026-05-05 08:28 -6.13597 107.26579 21123 ft 400 kts 113°
2026-05-05 08:29 -6.14715 107.29143 21718 ft 402 kts 113°
2026-05-05 08:29 -6.15843 107.31729 22218 ft 406 kts 113°
2026-05-05 08:29 -6.16985 107.34348 22779 ft 408 kts 113°
2026-05-05 08:30 -6.19286 107.39623 23767 ft 415 kts 113°
2026-05-05 08:30 -6.20449 107.42290 24268 ft 418 kts 113°
2026-05-05 08:30 -6.21619 107.44972 24692 ft 422 kts 113°
2026-05-05 08:30 -6.22788 107.47653 25140 ft 425 kts 113°
2026-05-05 08:31 -6.23981 107.50389 25556 ft 429 kts 113°
2026-05-05 08:31 -6.25184 107.53148 26001 ft 432 kts 113°
2026-05-05 08:31 -6.26397 107.55930 26402 ft 436 kts 113°
2026-05-05 08:31 -6.27618 107.58729 26835 ft 438 kts 113°
2026-05-05 08:32 -6.28845 107.61544 27205 ft 442 kts 113°
2026-05-05 08:32 -6.30083 107.64384 27628 ft 445 kts 113°
2026-05-05 08:32 -6.31330 107.67246 27987 ft 449 kts 113°
2026-05-05 08:32 -6.32588 107.70131 28381 ft 451 kts 113°
2026-05-05 08:33 -6.33837 107.72998 28755 ft 454 kts 112°
2026-05-05 08:33 -6.35110 107.75920 29099 ft 458 kts 113°
2026-05-05 08:33 -6.36391 107.78861 29471 ft 461 kts 113°
2026-05-05 08:33 -6.37680 107.81819 29826 ft 463 kts 112°
2026-05-05 08:34 -6.38977 107.84799 30170 ft 466 kts 112°
2026-05-05 08:34 -6.40284 107.87801 30548 ft 468 kts 112°
2026-05-05 08:34 -6.41593 107.90808 30901 ft 471 kts 112°
2026-05-05 08:34 -6.42911 107.93836 31244 ft 473 kts 112°
2026-05-05 08:35 -6.44232 107.96873 31659 ft 473 kts 112°
2026-05-05 08:35 -6.45550 107.99902 32198 ft 471 kts 113°
2026-05-05 08:35 -6.46859 108.02918 32676 ft 469 kts 112°
2026-05-05 08:35 -6.48162 108.05927 33123 ft 469 kts 112°
2026-05-05 08:36 -6.49462 108.08931 33575 ft 467 kts 112°
2026-05-05 08:36 -6.50760 108.11928 34017 ft 466 kts 112°
2026-05-05 08:36 -6.52037 108.14876 34445 ft 465 kts 112°
2026-05-05 08:36 -6.53330 108.17863 34858 ft 464 kts 113°
2026-05-05 08:37 -6.54618 108.20838 35262 ft 463 kts 113°
2026-05-05 08:37 -6.55903 108.23803 35670 ft 462 kts 113°
2026-05-05 08:37 -6.57180 108.26751 36087 ft 460 kts 112°
2026-05-05 08:37 -6.58457 108.29698 36484 ft 458 kts 112°
2026-05-05 08:38 -6.59730 108.32637 36847 ft 457 kts 113°
2026-05-05 08:38 -6.60999 108.35567 37172 ft 457 kts 113°
2026-05-05 08:38 -6.62269 108.38499 37504 ft 456 kts 113°
2026-05-05 08:38 -6.63538 108.41428 37873 ft 454 kts 113°
2026-05-05 08:39 -6.64798 108.44338 38198 ft 453 kts 113°
2026-05-05 08:39 -6.66038 108.47202 38489 ft 452 kts 113°
2026-05-05 08:39 -6.67293 108.50101 38783 ft 451 kts 113°
2026-05-05 08:39 -6.68548 108.52998 39065 ft 450 kts 113°
2026-05-05 08:40 -6.69776 108.55897 39320 ft 450 kts 109°
2026-05-05 08:40 -6.70611 108.58925 39533 ft 449 kts 99°
2026-05-05 08:40 -6.71134 108.62027 39751 ft 449 kts 99°
2026-05-05 08:40 -6.71642 108.65130 39952 ft 449 kts 98°
2026-05-05 08:41 -6.72130 108.68232 40158 ft 449 kts 98°
2026-05-05 08:41 -6.72604 108.71296 40338 ft 449 kts 98°
2026-05-05 08:41 -6.73081 108.74407 40567 ft 448 kts 98°
2026-05-05 08:41 -6.73554 108.77500 40741 ft 449 kts 98°
2026-05-05 08:42 -6.74027 108.80614 40788 ft 452 kts 98°
2026-05-05 08:42 -6.74980 108.86905 40802 ft 456 kts 98°
2026-05-05 08:43 -6.75935 108.93213 40800 ft 455 kts 98°
2026-05-05 08:43 -6.76883 108.99490 40798 ft 451 kts 98°
2026-05-05 08:44 -6.77818 109.05694 40797 ft 446 kts 98°
2026-05-05 08:44 -6.78744 109.11852 40797 ft 443 kts 98°
2026-05-05 08:45 -6.79659 109.17944 40797 ft 443 kts 98°
2026-05-05 08:45 -6.80580 109.24084 40797 ft 445 kts 98°
2026-05-05 08:46 -6.81506 109.30267 40796 ft 448 kts 98°
2026-05-05 08:46 -6.82437 109.36482 40795 ft 450 kts 98°
2026-05-05 08:47 -6.83213 109.41673 40794 ft 451 kts 98°
2026-05-05 08:47 -6.84146 109.47917 40792 ft 451 kts 98°
2026-05-05 08:48 -6.85077 109.54150 40791 ft 449 kts 98°
2026-05-05 08:48 -6.86002 109.60357 40790 ft 447 kts 98°
2026-05-05 08:49 -6.86924 109.66543 40790 ft 446 kts 98°
2026-05-05 08:49 -6.87842 109.72714 40789 ft 446 kts 98°
2026-05-05 08:50 -6.88755 109.78857 40789 ft 447 kts 98°
2026-05-05 08:50 -6.89677 109.85062 40789 ft 448 kts 98°
2026-05-05 08:51 -6.90601 109.91285 40788 ft 449 kts 98°
2026-05-05 08:51 -6.91525 109.97517 40787 ft 450 kts 98°
2026-05-05 08:52 -6.92442 110.03705 40786 ft 449 kts 97°
2026-05-05 08:52 -6.93364 110.09932 40788 ft 449 kts 97°
2026-05-05 08:53 -6.94285 110.16165 40788 ft 450 kts 98°
2026-05-05 08:53 -6.95207 110.22405 40787 ft 451 kts 98°
2026-05-05 08:54 -6.96124 110.28615 40787 ft 451 kts 98°
2026-05-05 08:54 -6.97045 110.34866 40786 ft 452 kts 98°
2026-05-05 08:55 -6.97596 110.41149 40788 ft 451 kts 90°
2026-05-05 08:55 -6.97717 110.47467 40786 ft 451 kts 90°
2026-05-05 08:56 -6.97833 110.53782 40786 ft 450 kts 90°
2026-05-05 08:56 -6.97948 110.60088 40787 ft 450 kts 90°
2026-05-05 08:57 -6.98059 110.66349 40788 ft 450 kts 90°
2026-05-05 08:57 -6.98169 110.72645 40789 ft 450 kts 90°
2026-05-05 08:58 -6.98277 110.78954 40790 ft 451 kts 90°
2026-05-05 08:58 -6.98385 110.85269 40791 ft 451 kts 90°
2026-05-05 08:59 -6.98491 110.91600 40792 ft 452 kts 90°
2026-05-05 08:59 -6.98596 110.97937 40792 ft 452 kts 90°
2026-05-05 09:00 -6.98700 111.04240 40794 ft 453 kts 90°
2026-05-05 09:00 -6.98803 111.10587 40795 ft 453 kts 90°
2026-05-05 09:01 -6.98905 111.16936 40795 ft 453 kts 90°
2026-05-05 09:01 -6.99006 111.23231 40796 ft 453 kts 90°
2026-05-05 09:02 -6.99106 111.29570 40797 ft 453 kts 90°
2026-05-05 09:02 -6.99205 111.35911 40799 ft 453 kts 90°
2026-05-05 09:03 -6.99978 111.42213 40799 ft 454 kts 104°
2026-05-05 09:03 -7.02083 111.48208 40802 ft 455 kts 110°
2026-05-05 09:04 -7.04446 111.54131 40802 ft 456 kts 112°
2026-05-05 09:04 -7.06894 111.60033 40803 ft 457 kts 112°
2026-05-05 09:05 -7.09371 111.65971 40804 ft 457 kts 112°
2026-05-05 09:05 -7.11838 111.71876 40805 ft 456 kts 112°
2026-05-05 09:06 -7.14283 111.77725 40805 ft 456 kts 112°
2026-05-05 09:06 -7.16741 111.83606 40807 ft 455 kts 112°
2026-05-05 09:07 -7.19201 111.89492 40808 ft 455 kts 112°
2026-05-05 09:07 -7.21661 111.95381 40809 ft 456 kts 112°
2026-05-05 09:08 -7.24116 112.01258 40810 ft 457 kts 113°
2026-05-05 09:08 -7.26587 112.07180 40811 ft 458 kts 113°
2026-05-05 09:09 -7.29058 112.13100 40811 ft 458 kts 113°
2026-05-05 09:09 -7.31540 112.19049 40812 ft 458 kts 113°
2026-05-05 09:10 -7.33990 112.24923 40812 ft 457 kts 113°
2026-05-05 09:10 -7.36447 112.30819 40813 ft 456 kts 113°
2026-05-05 09:11 -7.38905 112.36720 40816 ft 456 kts 113°
2026-05-05 09:11 -7.41362 112.42620 40816 ft 456 kts 113°
2026-05-05 09:12 -7.43817 112.48518 40816 ft 457 kts 113°
2026-05-05 09:12 -7.46262 112.54394 40816 ft 457 kts 113°
2026-05-05 09:13 -7.48725 112.60318 40816 ft 458 kts 113°
2026-05-05 09:13 -7.51191 112.66250 40816 ft 458 kts 113°
2026-05-05 09:14 -7.53654 112.72176 40816 ft 458 kts 113°
2026-05-05 09:14 -7.56116 112.78105 40816 ft 458 kts 113°
2026-05-05 09:15 -7.58577 112.84033 40816 ft 458 kts 113°
2026-05-05 09:15 -7.61024 112.89930 40817 ft 457 kts 113°
2026-05-05 09:15 -7.62260 112.92909 40639 ft 462 kts 113°
2026-05-05 09:16 -7.63505 112.95913 40393 ft 465 kts 113°
2026-05-05 09:16 -7.64739 112.98888 40148 ft 467 kts 113°
2026-05-05 09:16 -7.66008 113.01950 39894 ft 466 kts 113°
2026-05-05 09:16 -7.67242 113.04928 39647 ft 465 kts 113°
2026-05-05 09:17 -7.68485 113.07927 39396 ft 462 kts 113°
2026-05-05 09:17 -7.69721 113.10911 39144 ft 460 kts 113°
2026-05-05 09:17 -7.70925 113.13819 38860 ft 438 kts 113°
2026-05-05 09:17 -7.72077 113.16606 38598 ft 425 kts 113°
2026-05-05 09:18 -7.73204 113.19334 38338 ft 415 kts 113°
2026-05-05 09:18 -7.74303 113.21997 38081 ft 406 kts 113°
2026-05-05 09:18 -7.75377 113.24596 37824 ft 397 kts 113°
2026-05-05 09:18 -7.76429 113.27144 37567 ft 390 kts 113°
2026-05-05 09:19 -7.77451 113.29620 37313 ft 383 kts 113°
2026-05-05 09:19 -7.78464 113.32073 37058 ft 376 kts 113°
2026-05-05 09:19 -7.79464 113.34496 36801 ft 370 kts 113°
2026-05-05 09:19 -7.80449 113.36882 36563 ft 369 kts 113°
2026-05-05 09:20 -7.81457 113.39321 36335 ft 383 kts 113°
2026-05-05 09:20 -7.82501 113.41843 36100 ft 397 kts 113°
2026-05-05 09:20 -7.83587 113.44470 35861 ft 411 kts 114°
2026-05-05 09:20 -7.84708 113.47177 35621 ft 426 kts 113°
2026-05-05 09:21 -7.85874 113.49991 35384 ft 442 kts 113°
2026-05-05 09:21 -7.87081 113.52905 35142 ft 456 kts 113°
2026-05-05 09:21 -7.88319 113.55898 34897 ft 466 kts 113°
2026-05-05 09:21 -7.89562 113.58904 34654 ft 473 kts 113°
2026-05-05 09:22 -7.90832 113.61981 34406 ft 476 kts 113°
2026-05-05 09:22 -7.92106 113.65069 34155 ft 476 kts 113°
2026-05-05 09:22 -7.93372 113.68140 33904 ft 473 kts 113°
2026-05-05 09:22 -7.94629 113.71189 33715 ft 466 kts 113°
2026-05-05 09:23 -7.95877 113.74214 33199 ft 465 kts 113°
2026-05-05 09:23 -7.97113 113.77214 32733 ft 461 kts 113°
2026-05-05 09:23 -7.98341 113.80195 32260 ft 458 kts 113°
2026-05-05 09:23 -7.99603 113.83136 31781 ft 454 kts 118°
2026-05-05 09:24 -8.01337 113.85730 31060 ft 454 kts 133°
2026-05-05 09:24 -8.03722 113.87842 30078 ft 460 kts 148°
2026-05-05 09:24 -8.06592 113.89218 29661 ft 452 kts 163°
2026-05-05 09:24 -8.09649 113.89870 29054 ft 451 kts 172°
2026-05-05 09:25 -8.12778 113.90337 28636 ft 445 kts 172°
2026-05-05 09:25 -8.15801 113.90784 28063 ft 443 kts 172°
2026-05-05 09:25 -8.18837 113.91227 27582 ft 440 kts 172°
2026-05-05 09:25 -8.20886 113.91523 27237 ft 438 kts 172°
2026-05-05 09:26 -8.23837 113.91947 26575 ft 416 kts 172°
2026-05-05 09:26 -8.27471 113.92481 25957 ft 390 kts 172°
2026-05-05 09:26 -8.29300 113.92749 25656 ft 395 kts 172°
2026-05-05 09:26 -8.32029 113.93134 25208 ft 396 kts 172°
2026-05-05 09:27 -8.34748 113.93505 24765 ft 393 kts 172°
2026-05-05 09:27 -8.37431 113.93864 24324 ft 391 kts 172°
2026-05-05 09:27 -8.40120 113.94218 23884 ft 388 kts 172°
2026-05-05 09:27 -8.42800 113.94566 23444 ft 386 kts 172°
2026-05-05 09:28 -8.45465 113.94909 23004 ft 384 kts 173°
2026-05-05 09:28 -8.48109 113.95246 22566 ft 381 kts 173°
2026-05-05 09:28 -8.50729 113.95578 22132 ft 379 kts 173°
2026-05-05 09:28 -8.53339 113.95907 21698 ft 377 kts 173°
2026-05-05 09:29 -8.55937 113.96240 21261 ft 374 kts 171°
2026-05-05 09:29 -8.58382 113.97070 20832 ft 371 kts 151°
2026-05-05 09:29 -8.60393 113.98677 20395 ft 368 kts 131°
2026-05-05 09:29 -8.61749 114.00865 19849 ft 369 kts 112°
2026-05-05 09:30 -8.62659 114.03280 19438 ft 367 kts 110°
2026-05-05 09:30 -8.63519 114.05691 19012 ft 364 kts 110°
2026-05-05 09:30 -8.64364 114.08101 18586 ft 362 kts 110°
2026-05-05 09:30 -8.65194 114.10502 18161 ft 360 kts 110°
2026-05-05 09:31 -8.66016 114.12896 17737 ft 358 kts 110°
2026-05-05 09:31 -8.66828 114.15275 17314 ft 356 kts 109°
2026-05-05 09:31 -8.67627 114.17639 16892 ft 354 kts 109°
2026-05-05 09:31 -8.68420 114.19990 16471 ft 352 kts 109°
2026-05-05 09:32 -8.69195 114.22296 16055 ft 350 kts 109°
2026-05-05 09:32 -8.69976 114.24622 15639 ft 348 kts 109°
2026-05-05 09:32 -8.70751 114.26931 15221 ft 345 kts 109°
2026-05-05 09:32 -8.71519 114.29223 14805 ft 343 kts 109°
2026-05-05 09:33 -8.72282 114.31501 14391 ft 341 kts 109°
2026-05-05 09:33 -8.73041 114.33767 13977 ft 339 kts 109°
2026-05-05 09:33 -8.73792 114.36014 13564 ft 336 kts 109°
2026-05-05 09:33 -8.74529 114.38217 13146 ft 318 kts 109°
2026-05-05 09:34 -8.75212 114.40259 12917 ft 301 kts 109°
2026-05-05 09:34 -8.75888 114.42282 12487 ft 304 kts 109°
2026-05-05 09:34 -8.76548 114.44257 11778 ft 290 kts 109°
2026-05-05 09:34 -8.77192 114.46187 10605 ft 290 kts 108°
2026-05-05 09:35 -8.77834 114.48109 9585 ft 284 kts 108°
2026-05-05 09:35 -8.79072 114.51816 7532 ft 275 kts 108°
2026-05-05 09:35 -8.79678 114.53631 6552 ft 269 kts 108°
2026-05-05 09:36 -8.80274 114.55415 5591 ft 269 kts 108°
2026-05-05 09:36 -8.80877 114.57225 5168 ft 271 kts 108°
2026-05-05 09:36 -8.81469 114.58998 5056 ft 262 kts 108°
2026-05-05 09:36 -8.82053 114.60750 5031 ft 263 kts 108°
2026-05-05 09:37 -8.82642 114.62515 5025 ft 266 kts 108°
2026-05-05 09:37 -8.83233 114.64287 5022 ft 266 kts 108°
2026-05-05 09:37 -8.83818 114.66040 5019 ft 265 kts 108°
2026-05-05 09:37 -8.84196 114.67883 5017 ft 265 kts 92°
2026-05-05 09:38 -8.83981 114.69704 4984 ft 266 kts 74°
2026-05-05 09:38 -8.83358 114.71446 4913 ft 260 kts 70°
2026-05-05 09:38 -8.82721 114.73134 4835 ft 254 kts 70°
2026-05-05 09:38 -8.82077 114.74792 4757 ft 252 kts 69°
2026-05-05 09:39 -8.81426 114.76435 4682 ft 251 kts 69°
2026-05-05 09:39 -8.80770 114.78073 4607 ft 250 kts 69°
2026-05-05 09:39 -8.80120 114.79681 4533 ft 250 kts 69°
2026-05-05 09:39 -8.79462 114.81303 4457 ft 249 kts 69°
2026-05-05 09:40 -8.78818 114.82884 4361 ft 231 kts 69°
2026-05-05 09:40 -8.78219 114.84351 4292 ft 229 kts 69°
2026-05-05 09:40 -8.77603 114.85861 4221 ft 232 kts 69°
2026-05-05 09:40 -8.76993 114.87353 4143 ft 227 kts 69°
2026-05-05 09:41 -8.76396 114.88812 4055 ft 222 kts 69°
2026-05-05 09:41 -8.75884 114.90250 3971 ft 212 kts 75°
2026-05-05 09:41 -8.75596 114.91678 3887 ft 202 kts 84°
2026-05-05 09:41 -8.75540 114.93058 3799 ft 191 kts 91°
2026-05-05 09:42 -8.75493 114.94376 3574 ft 184 kts 88°
2026-05-05 09:42 -8.75452 114.95652 3030 ft 181 kts 89°
2026-05-05 09:42 -8.75418 114.96922 2401 ft 183 kts 90°
2026-05-05 09:42 -8.75414 114.98212 2034 ft 182 kts 89°
2026-05-05 09:43 -8.75376 114.99472 1805 ft 177 kts 90°
2026-05-05 09:43 -8.75346 115.00672 1718 ft 165 kts 90°
2026-05-05 09:43 -8.75319 115.01824 1707 ft 164 kts 90°
2026-05-05 09:43 -8.75295 115.02983 1709 ft 165 kts 90°
2026-05-05 09:44 -8.75273 115.04129 1723 ft 161 kts 90°
2026-05-05 09:44 -8.75252 115.05253 1724 ft 158 kts 90°
2026-05-05 09:44 -8.75231 115.06366 1733 ft 159 kts 90°
2026-05-05 09:44 -8.75240 115.07483 1698 ft 162 kts 92°
2026-05-05 09:45 -8.75211 115.08633 1520 ft 161 kts 88°
2026-05-05 09:45 -8.75122 115.09712 1356 ft 147 kts 86°
2026-05-05 09:45 -8.75023 115.10699 1108 ft 140 kts 88°
2026-05-05 09:45 -8.74971 115.11672 791 ft 138 kts 91°
2026-05-05 09:46 -8.74973 115.12618 532 ft 129 kts 92°
2026-05-05 09:46 -8.74973 115.13518 346 ft 128 kts 90°
2026-05-05 09:46 -8.74929 115.14425 190 ft 131 kts 88°
2026-05-05 09:46 -8.74894 115.15327 32 ft 117 kts 86°
2026-05-05 09:47 -8.74870 115.16055 31 ft 78 kts 88°
2026-05-05 09:47 -8.74856 115.16404 31 ft 29 kts 85°
2026-05-05 09:47 -8.74848 115.16605 31 ft 28 kts 88°
2026-05-05 09:47 -8.74785 115.16806 31 ft 33 kts 61°
2026-05-05 09:48 -8.74698 115.16869 31 ft 5 kts 338°
2026-05-05 09:48 -8.74677 115.16823 31 ft 11 kts 269°
2026-05-05 09:48 -8.74678 115.16745 31 ft 7 kts 278°
2026-05-05 09:48 -8.74635 115.16695 31 ft 11 kts 321°
2026-05-05 09:49 -8.74571 115.16676 31 ft 6 kts 355°
2026-05-05 09:49 -8.74552 115.16674 30 ft 0 kts 355°